Tracking 19575 objects as of 19-Feb-2019
HD Live streaming from Space Station
objects crossing your sky now

IRS P6

Track IRS P6 now!
10-day predictions
IRS P6 is classified as:


NORAD ID: 28051
Int'l Code: 2003-046A
Perigee: 743.0 km
Apogee: 827.0 km
Inclination: 98.5 °
Period: 100.4 minutes
Semi major axis: 7155 km
RCS: 5.9386 m2 (large)
Launch date: October 17, 2003
Source: India (IND)
Launch site: SRIHARIKOTA (SRI)

Monitor agricultural, land, and water resources.
aabbcc
Your satellite tracking list
Your tracking list is empty




NASA's NSSDC Master Catalog

Two Line Element Set (TLE):
1 28051U 03046A   19049.75342310  .00001202  00000-0  43599-3 0  9995
2 28051  98.5293 129.0930 0058672  25.1947 335.2112 14.34164950796910
Source of the keplerian elements: AFSPC